Location: C.E.K. Mees Observatory
(42.7003°N, 77.4088°W)
Time: 12:39:01
(UTC-05:00)

Envisat - Pass Details

Date: 25 November 2019
Orbit: 764 x 766 km, 98.1° (Epoch: 05 December)

Event Time Altitude Azimuth Distance (km) Brightness Sun altitude
Rises 18:32:12 0° 180° (S) 3,215 6.4 -20.3°
Reaches altitude 10° 18:34:34 10° 185° (S) 2,294 5.6 -20.7°
Maximum altitude 18:39:28 50° 261° (W) 970 3.9 -21.6°
Drops below altitude 10° 18:44:25 10° 336° (NNW) 2,309 5.6 -22.5°
Sets 18:46:48 0° 342° (NNW) 3,239 6.4 -23.0°
